Location: Oshawa
(43.9000°N, 78.8670°W)
Time: 22:49:56
(UTC-05:00)

Cosmos 1821 Rocket - Visible Passes

Search period start: 08 December 2016 00:00
Search period end: 18 December 2016 00:00
Orbit: 945 x 1005 km, 82.9° (Epoch: 08 December)

Date Brightness Start Highest point End Pass type
(mag) Time Alt. Az. Time Alt. Az. Time Alt. Az.
08 Dec 5.3 06:55:43 10° SSE 07:01:35 44° E 07:07:24 10° NNE visible
08 Dec 4.3 17:49:54 10° N 17:55:33 38° ENE 18:01:11 10° SE visible
08 Dec 5.5 19:35:28 10° NNW 19:40:49 33° W 19:46:10 10° SSW visible
09 Dec 7.0 05:40:41 10° E 05:42:29 11° ENE 05:44:15 10° ENE visible
09 Dec 3.8 18:14:57 10° N 18:21:02 68° E 18:27:05 10° SSE visible
09 Dec 6.4 20:01:44 10° NW 20:05:44 19° W 20:09:44 10° WSW visible
10 Dec 6.5 06:02:45 10° SE 06:07:16 21° E 06:11:45 10° NE visible
10 Dec 4.2 18:40:16 10° NNW 18:46:19 70° W 18:52:23 10° S visible
11 Dec 5.6 06:26:35 10° SSE 06:32:14 38° E 06:37:51 10° NNE visible
11 Dec 4.6 17:20:36 10° N 17:26:03 33° ENE 17:31:28 10° SE visible
11 Dec 5.3 19:05:53 10° NNW 19:11:27 39° W 19:17:02 10° SSW visible
12 Dec 4.5 06:51:12 10° S 06:57:22 67° E 07:03:29 10° NNE visible
12 Dec 4.0 17:45:33 10° N 17:51:34 58° ENE 17:57:34 10° SSE visible
12 Dec 6.2 19:31:56 10° NW 19:36:25 22° W 19:40:54 10° SW visible
13 Dec 6.7 05:33:58 10° ESE 05:37:58 18° E 05:41:56 10° NE visible
13 Dec 4.0 18:10:48 10° N 18:16:55 81° W 18:23:01 10° S visible
13 Dec 6.9 19:59:19 10° WNW 20:01:13 12° WNW 20:03:07 10° W visible
14 Dec 5.8 05:57:30 10° SSE 06:02:53 32° E 06:08:14 10° NNE visible
14 Dec 5.0 18:36:19 10° NNW 18:42:05 45° W 18:47:51 10° SSW visible
15 Dec 4.7 06:21:55 10° S 06:27:58 57° E 06:33:59 10° NNE visible
15 Dec 4.1 17:16:10 10° N 17:22:05 50° ENE 17:28:00 10° SSE visible
15 Dec 6.0 19:02:14 10° NNW 19:07:06 26° W 19:11:58 10° SW visible
16 Dec 6.8 05:05:20 10° ESE 05:08:40 15° E 05:12:00 10° NE visible
16 Dec 4.0 06:46:59 10° S 06:53:13 82° W 06:59:23 10° N visible
16 Dec 3.9 17:41:20 10° N 17:47:28 87° E 17:53:37 10° S visible
16 Dec 6.8 19:28:59 10° NW 19:31:56 14° W 19:34:53 10° WSW visible
17 Dec 6.0 05:28:27 10° SE 05:33:33 27° E 05:38:35 10° NNE visible
17 Dec 4.8 18:06:47 10° NNW 18:12:42 53° W 18:18:37 10° SSW visible
